Regional Weather Roundup
Issued by NWS

Home | Current Version | Previous Version | Text Only | Print | Product List | Glossary Off
Versions: 1 2 3 4 5 6 7 8 9 10 11 12 13 14 15 16 17 18 19 20 21 22 23 24 25 26 27 28 29 30 31 32 33 34 35 36 37 38 39 40 41 42 43 44 45 46 47 48 49 50

835
ASUS43 KFSD 240510
RWRSD

WEATHER ROUNDUP FOR SOUTH DAKOTA
NATIONAL WEATHER SERVICE SIOUX FALLS SD
1100 PM CST MON JAN 23 2017

NOTE: "FAIR" INDICATES FEW OR NO CLOUDS BELOW 12,000 FEET WITH NO
SIGNIFICANT WEATHER AND/OR OBSTRUCTIONS TO VISIBILITY.


SDZ001>005-009-010-012>017-240600-
NORTHWEST AND NORTH CENTRAL SOUTH DAKOTA

CITY           SKY/WX    TMP DP  RH WIND       PRES   REMARKS
BUFFALO          N/A     25  21  85 NE6       29.69S WCI  18
FAITH            N/A     26  24  92 NE13      29.76S WCI  15
MOBRIDGE       FLURRIES  28  23  81 NE9       29.78S WCI  19
$$

SDZ012>016-024>037-041>051-057-063-072>074-240600-
SOUTHWEST AND SOUTH CENTRAL SOUTH DAKOTA

CITY           SKY/WX    TMP DP  RH WIND       PRES   REMARKS
RAPID CTY ARPT CLOUDY    23  21  92 N16       29.71F FOG     WCI  10
PIERRE         CLOUDY    29  26  89 E7        29.76S WCI  22
CUSTER         CLOUDY    22  17  81 NE5       29.57F WCI  16
ELLSWORTH AFB  FOG       23  23 100 N12       29.70F VSB 1/2 WCI  11
PHILIP         CLOUDY    28  28 100 NE9       29.73F FOG     WCI  19
PINE RIDGE     CLOUDY    26  26 100 NE9       29.67R FOG     WCI  17
SPEARFISH      FOG       19  19 100 NE3       29.70F VSB<1/4
WINNER         CLOUDY    33  29  85 E6        29.72S WCI  28
$$

SDZ004>011-016>023-039-040-240600-
NORTHEAST SOUTH DAKOTA

CITY           SKY/WX    TMP DP  RH WIND       PRES   REMARKS
ABERDEEN       CLOUDY    29  25  85 N5        29.84R FOG     WCI  24
WATERTOWN      CLOUDY    28  26  92 SE7       29.80R WCI  21
BROOKINGS      CLOUDY    30  27  88 S8        29.81R WCI  22
SISSETON         N/A     31  29  92 CALM      29.83R
$$

SDZ017-020-022-023-036>040-048>070-240600-
SOUTHEAST SOUTH DAKOTA

CITY           SKY/WX    TMP DP  RH WIND       PRES   REMARKS
SIOUX FALLS    CLOUDY    32  30  92 SE8       29.81F WCI  25
HURON          CLOUDY    31  28  89 SE8       29.81R WCI  23
CHAMBERLAIN    CLOUDY    32  31  95 E6        29.76S WCI  26
MITCHELL       CLOUDY    32  29  88 SE10      29.80F WCI  24
YANKTON        CLOUDY    30  27  86 E7        29.80S WCI  23
$$

ABBREVIATIONS USED IN REMARKS
   TC - TEMPERATURE IN CELSIUS
  WCI - WIND CHILL INDEX
   HX - HEAT INDEX
  VSB - VISIBILITY





USA.gov is the U.S. government's official web portal to all federal, state and local government web resources and services.